Theta_e
338 347 352 354 353 354 354 352 352 353 351 351 349 347 346 344 343 342 341 341 340 340 341 343 344 345 343 344 344 345 345 345 343 343 343 343 343 344 345 345 346 345 349
344 346 350 353 353 352 352 353 353 352 352 350 348 347 344 344 343 342 340 339 339 339 338 339 341 342 342 343 344 345 344 342 343 341 341 340 342 340 340 341 342 343 347
346 348 350 352 354 353 353 353 353 352 351 350 348 346 345 343 341 341 339 337 338 337 336 335 337 340 340 341 342 342 341 342 342 340 339 332 333 338 338 337 338 340 344
347 349 349 348 352 353 353 352 351 351 350 349 348 346 345 343 341 340 337 336 336 335 334 333 334 337 337 338 340 338 339 339 338 336 333 332 330 337 337 336 337 337 338
346 347 346 347 351 351 351 351 351 351 350 349 348 346 345 342 341 339 336 335 335 333 331 330 330 331 333 335 335 333 336 335 331 328 327 329 327 333 335 335 334 335 334
345 347 345 347 350 350 350 350 350 350 349 348 348 347 344 342 340 338 336 334 333 330 328 326 326 326 327 329 329 331 331 330 325 320 321 325 325 333 333 333 333 333 334
341 345 345 345 347 349 349 349 348 348 348 349 347 346 343 341 339 338 337 336 334 331 327 323 322 322 322 324 324 325 325 324 315 315 316 319 323 330 330 330 331 332 331
344 344 345 340 342 344 346 347 347 347 348 347 347 346 343 341 339 338 337 335 334 333 329 321 319 318 319 320 320 321 322 317 312 311 313 315 330 330 330 329 329 330 330
325 330 339 342 340 338 340 341 343 344 344 345 344 344 342 340 340 338 337 334 333 332 329 322 319 317 317 318 317 318 317 314 302 306 311 313 327 329 329 328 328 330 329
310 312 317 335 339 339 339 336 337 339 340 341 340 338 335 335 336 336 333 335 334 332 328 324 320 317 316 316 316 315 312 310 300 303 307 314 324 326 327 329 327 328 329
307 308 309 314 328 338 341 337 334 334 335 335 334 330 329 333 333 332 330 334 334 332 329 327 323 318 314 315 315 311 306 298 299 300 304 319 321 323 325 327 329 328 328
303 307 309 309 311 324 335 341 341 338 339 338 336 332 332 332 330 330 326 328 329 328 330 327 323 318 311 304 302 305 298 298 298 300 304 317 317 320 321 323 325 328 329
302 307 310 311 311 310 328 335 338 336 335 335 333 332 332 329 328 326 325 322 321 319 318 318 315 311 308 306 304 302 301 299 297 299 304 315 317 320 320 321 322 323 326
304 304 308 310 311 311 316 332 333 331 330 330 332 334 330 328 326 326 325 320 319 317 314 313 314 313 311 308 307 306 304 302 300 300 302 313 316 319 322 322 321 321 321
304 303 306 309 311 313 313 329 328 327 326 326 329 331 331 328 327 326 323 321 319 316 314 311 310 310 310 311 309 308 307 306 304 302 301 312 315 316 318 319 320 321 321
303 303 307 312 313 317 326 323 322 322 322 321 323 323 325 325 322 319 317 316 313 313 311 310 308 308 307 309 308 307 307 306 305 302 301 303 311 312 314 317 318 319 320
302 304 308 314 315 317 318 317 317 317 317 316 316 317 318 318 317 315 313 311 312 310 308 307 308 306 304 303 301 303 305 304 301 299 300 300 300 306 309 312 308 311 313
301 304 307 311 311 312 313 313 312 313 313 312 313 313 313 313 312 310 308 307 308 307 305 303 302 300 297 297 298 299 301 300 298 298 298 298 296 295 301 305 302 307 309
301 303 303 307 307 309 308 306 305 305 305 306 306 308 308 307 306 304 301 300 299 299 299 298 294 293 292 294 297 298 298 297 296 295 292 294 292 290 293 297 297 300 303
301 302 302 304 305 305 303 301 299 298 297 299 299 299 300 300 299 296 294 292 293 294 294 293 290 289 289 292 297 295 294 293 293 290 287 289 289 287 290 289 288 289 298
299 300 301 303 303 303 301 299 297 294 294 294 294 292 293 293 293 291 290 289 289 289 288 289 289 286 286 287 294 294 293 292 289 288 286 285 286 286 287 287 286 287 289
299 300 301 303 303 303 301 296 294 292 291 291 291 290 290 290 289 289 288 287 286 286 285 284 285 284 284 284 289 289 288 291 289 287 284 284 282 284 285 286 285 286 287
297 300 302 303 303 297 293 292 290 290 290 289 288 287 287 288 288 287 286 286 285 285 283 282 283 283 281 283 283 286 280 279 283 288 283 282 282 282 282 283 284 286 286
298 304 305 303 297 295 294 292 291 290 288 287 284 285 286 286 286 286 285 285 284 284 283 283 283 282 282 280 281 284 282 281 278 277 280 281 281 281 281 281 282 284 285
299 299 300 297 296 294 294 293 291 288 286 285 284 284 283 284 284 284 284 284 283 283 282 282 281 281 281 280 280 280 280 280 279 277 276 277 279 280 280 281 281 281 284
295 295 297 295 294 294 292 290 289 286 284 284 283 282 282 282 283 283 284 283 283 282 281 281 281 281 281 280 280 280 280 278 277 276 275 275 275 278 279 280 280 280 281
Wind_Speed
2 7 10 11 13 13 14 14 14 12 15 17 17 18 18 18 18 17 17 17 17 16 16 16 15 15 15 15 15 15 14 13 18 18 19 19 19 19 19 19 16 12 17
8 7 11 11 12 12 12 12 12 12 14 17 17 17 17 17 17 17 17 16 15 16 16 15 15 15 15 15 15 14 15 13 11 14 15 16 18 19 19 18 18 14 18
9 7 9 12 12 12 11 11 11 11 14 16 17 15 17 16 16 16 15 15 15 16 15 15 15 15 14 15 16 18 19 16 17 12 12 5 9 18 18 18 17 17 19
10 8 8 11 12 12 11 10 10 11 13 14 16 15 16 16 15 16 16 15 15 15 15 15 14 14 14 15 16 18 19 20 19 15 8 7 8 17 17 17 17 16 15
8 7 7 10 12 12 12 11 12 12 12 13 15 15 16 15 15 16 16 16 15 15 15 15 15 14 14 15 17 18 18 18 17 12 7 8 6 13 16 16 14 15 14
9 8 9 11 11 11 12 11 12 12 12 12 12 14 15 15 15 15 16 15 15 15 15 15 15 15 15 16 17 18 18 17 14 8 8 9 7 15 15 15 15 14 13
6 7 10 11 10 11 11 12 12 12 14 13 12 15 15 15 15 15 15 15 14 14 15 15 15 15 15 16 17 18 17 17 9 8 7 7 6 15 15 15 14 14 14
8 8 8 9 9 9 9 9 9 10 12 13 13 15 15 14 15 15 14 14 13 14 15 15 14 15 15 15 16 17 17 15 8 7 7 6 11 14 15 15 15 14 15
9 8 5 5 8 7 7 8 10 10 11 14 14 14 13 13 14 15 13 14 14 14 14 14 14 15 14 14 15 15 15 15 7 5 6 4 12 14 14 14 14 14 14
8 7 5 3 4 5 5 7 8 10 9 11 12 12 11 11 11 11 9 11 15 14 13 13 13 13 13 13 13 13 12 12 7 5 4 5 13 14 14 14 13 13 13
5 6 5 4 3 4 4 4 8 11 10 11 11 12 11 6 6 7 6 6 10 12 14 13 11 10 10 11 12 12 11 4 5 4 4 11 14 15 15 15 14 13 13
4 3 4 4 3 2 1 4 5 5 5 5 7 8 5 4 4 5 6 10 10 8 9 12 12 11 8 5 5 8 4 5 5 4 4 14 16 16 15 15 15 15 11
2 3 4 4 5 4 2 2 2 2 3 3 7 7 7 5 4 3 3 3 3 6 3 5 5 4 6 4 4 4 5 5 4 4 6 15 17 17 17 17 18 17 17
4 1 2 3 3 3 3 2 3 4 3 3 5 7 6 5 5 3 3 4 4 3 4 4 3 4 5 6 6 6 6 5 3 3 6 12 17 19 20 20 20 19 19
5 3 1 2 3 3 2 4 4 4 3 4 4 6 6 6 5 4 4 4 3 4 3 4 5 5 5 5 5 6 6 6 6 4 4 19 20 22 22 22 22 22 21
4 3 1 2 3 4 5 6 5 4 4 5 4 5 7 5 6 5 5 5 5 4 4 4 4 4 4 5 6 6 6 6 7 8 7 9 22 24 24 24 25 24 23
4 4 3 4 3 6 7 7 5 4 5 5 5 8 8 7 7 7 5 5 3 4 5 5 6 5 5 5 6 5 5 6 9 10 9 8 9 19 24 24 26 24 23
5 5 5 4 4 7 7 7 6 5 6 5 6 6 9 9 9 8 6 5 3 5 6 5 4 5 5 4 3 4 5 7 10 10 10 8 7 7 13 23 24 24 25
6 6 6 5 7 8 9 8 8 8 7 5 7 6 9 9 9 8 6 4 5 6 5 4 5 4 4 4 5 5 6 7 7 8 11 10 11 9 6 17 22 22 26
6 6 6 6 8 9 9 8 8 7 6 6 6 6 9 7 8 8 6 6 5 6 5 5 6 6 4 4 7 8 5 5 6 7 7 8 9 9 7 10 7 9 23
6 7 7 10 9 8 8 8 6 6 5 6 6 7 7 6 7 8 6 7 6 7 5 4 3 7 8 4 4 4 5 5 8 5 4 7 9 8 9 8 7 6 8
9 8 8 10 10 7 5 5 5 6 5 5 5 7 6 7 6 7 8 7 6 7 7 6 4 3 4 5 3 2 1 1 4 5 4 6 6 5 9 9 10 10 9
9 10 10 11 10 7 9 10 8 9 7 5 5 5 5 7 7 8 8 8 7 6 7 5 5 6 4 5 8 4 2 0 2 2 4 6 8 5 5 7 9 9 9
10 11 12 11 10 11 12 11 15 10 10 3 3 4 6 7 8 8 8 7 8 6 8 6 5 5 4 3 3 6 7 3 3 5 3 4 5 6 6 5 6 8 7
11 11 11 11 11 12 11 10 8 8 9 8 6 9 7 6 7 6 6 8 10 7 7 8 7 8 4 4 3 2 4 4 5 3 3 6 4 3 2 4 4 4 6
8 8 11 13 11 11 11 10 11 17 14 11 9 8 6 5 4 5 7 8 8 8 7 6 6 7 6 6 4 4 3 3 2 3 2 2 2 5 6 4 4 4 5
Wind_Direction
193 146 138 127 120 113 109 109 109 108 106 102 95 92 86 83 77 72 69 64 62 63 59 57 56 55 60 49 54 59 59 63 64 65 59 55 55 52 44 39 32 42 43
139 150 136 124 117 113 111 115 111 112 108 104 96 93 91 85 78 72 68 69 66 62 62 60 58 56 54 47 49 45 42 41 82 77 68 55 51 51 47 40 34 33 34
138 140 139 133 128 122 121 115 112 111 108 108 104 101 95 87 79 77 70 65 65 62 61 59 57 57 51 45 46 41 40 58 103 81 56 45 54 49 48 45 42 34 25
142 144 143 140 134 128 122 116 123 121 117 115 111 107 100 91 87 82 76 70 68 65 60 59 56 55 51 47 48 46 53 67 64 61 48 34 45 47 46 45 44 44 36
144 147 142 148 146 141 133 127 122 121 124 123 121 117 106 100 91 85 79 76 70 66 61 58 56 54 49 49 49 45 64 67 61 51 35 37 31 45 45 47 46 43 40
150 149 158 160 157 152 144 135 129 131 130 129 127 122 113 108 101 93 86 81 75 68 66 63 60 56 52 51 53 56 61 69 61 45 41 29 32 43 43 44 44 42 39
158 160 161 164 165 162 156 146 147 147 140 137 137 133 124 119 111 103 96 88 81 77 74 70 65 61 57 57 55 54 64 65 56 47 35 21 24 44 41 41 40 39 37
143 146 154 159 153 160 153 146 149 149 142 139 138 137 131 126 120 115 106 98 92 86 83 81 76 70 67 64 63 64 67 66 56 52 35 15 25 43 41 39 37 37 33
55 62 55 130 139 143 157 164 163 158 156 147 144 138 136 133 131 126 121 112 97 83 82 82 77 72 71 68 66 69 73 71 65 51 41 12 32 42 43 41 37 37 33
51 58 50 68 148 155 155 171 152 156 160 145 142 138 135 136 135 140 142 128 113 101 91 87 80 72 68 67 64 65 71 71 66 56 35 21 39 43 39 36 39 37 35
49 47 47 45 60 110 159 157 154 157 161 149 139 143 139 142 143 139 119 106 102 108 106 91 87 80 70 57 57 59 61 57 61 45 26 29 37 38 37 34 27 34 31
92 48 33 26 16 65 138 171 171 157 157 146 148 146 133 126 123 115 100 88 85 71 88 91 79 68 55 46 38 48 46 45 44 35 18 29 33 34 35 33 28 17 30
116 43 25 12 349 334 229 165 100 90 101 130 151 150 145 130 119 116 109 104 106 90 58 75 78 60 63 56 51 50 47 45 44 34 16 29 35 35 33 29 26 23 14
129 145 346 345 335 289 274 117 102 107 101 108 160 142 139 133 128 139 125 124 99 80 89 77 81 85 62 60 57 57 54 49 41 40 26 33 38 36 36 32 26 20 16
166 199 271 297 254 256 205 116 113 98 97 99 104 128 143 141 142 118 88 75 85 105 76 63 55 53 44 41 48 54 47 43 45 48 46 49 47 45 40 37 32 28 23
170 191 256 30 196 159 123 112 104 95 91 75 74 85 93 99 102 96 84 72 53 44 50 75 72 67 55 48 44 42 48 49 56 64 61 51 51 47 41 39 35 29 25
187 182 147 134 84 105 104 99 94 91 85 78 72 73 78 87 90 87 77 68 60 67 70 52 56 50 48 37 44 40 44 54 73 67 62 57 47 41 43 43 35 31 25
173 178 141 129 105 98 108 101 96 81 82 81 75 72 77 80 87 88 90 77 58 68 68 56 40 56 48 52 57 45 55 71 72 67 60 54 45 31 32 37 29 28 26
180 164 140 125 116 119 108 97 88 80 73 74 80 79 81 84 90 96 92 83 71 72 64 65 46 56 42 39 64 59 53 63 65 64 57 51 42 37 32 27 24 25 22
178 169 148 135 134 128 113 103 91 84 72 74 73 78 91 87 90 98 89 79 74 83 68 60 68 45 60 32 75 67 58 59 69 63 55 49 40 31 24 23 18 11 18
175 164 167 146 151 143 134 126 112 107 102 86 80 69 66 80 86 96 89 85 77 80 78 59 82 56 36 4 87 55 49 58 69 56 58 47 34 18 24 19 15 12 8
177 176 167 157 159 157 133 105 105 118 87 86 87 72 75 82 80 87 94 83 79 86 62 51 60 79 59 7 110 98 64 316 37 53 45 43 29 12 19 10 15 13 11
183 176 171 163 159 128 120 114 106 104 106 104 85 80 55 80 79 85 85 91 84 83 78 58 56 78 102 30 45 119 81 233 329 353 33 39 20 17 11 3 12 13 16
184 176 169 157 145 140 142 143 151 147 140 120 107 101 86 72 84 83 89 98 94 86 78 69 45 60 90 83 37 35 57 77 64 339 3 9 5 11 3 357 6 9 21
172 168 162 148 149 150 150 156 142 124 109 119 114 107 95 81 71 81 108 100 88 83 80 81 68 62 47 79 67 50 56 64 61 93 292 331 348 343 337 357 358 12 25
158 155 156 152 154 154 149 144 149 138 139 135 134 125 118 101 96 98 91 90 93 96 96 95 91 82 79 79 77 67 82 86 44 57 348 309 249 300 319 319 26 18 21